Location: Faicchio
(41.2833°N, 14.4833°E)
Time: 05:56:05
(UTC+00:00)

CZ-2C R/B - Pass Details

Date: 15 June 2025
Orbit: 663 x 774 km, 98.4° (Epoch: 16 July)

Event Time Altitude Azimuth Distance (km) Brightness Sun altitude
Rises 02:14:01 0° 24° (NNE) 3,027 7.1 -11.6°
Reaches altitude 10° 02:16:28 10° 35° (NE) 2,119 6.3 -11.3°
Maximum altitude 02:20:34 31° 97° (E) 1,208 4.0 -10.8°
Drops below altitude 10° 02:24:43 10° 159° (SSE) 2,155 4.6 -10.2°
Sets 02:27:13 0° 170° (S) 3,087 5.3 -9.9°
